Location: Bishop�s Knoyle
(51.0728°N, 2.1714°W)
Time: 13:09:21
(UTC+00:00)

NOSS 3-4 (C) - Pass Details

Date: 24 January 2021
Orbit: 878 x 1335 km, 63.4° (Epoch: 16 February)

Event Time Altitude Azimuth Distance (km) Brightness Sun altitude
Rises 18:36:49 0° 282° (WNW) 3,564 7.8 -17.1°
Reaches altitude 10° 18:39:39 10° 294° (WNW) 2,671 6.6 -17.6°
Maximum altitude 18:45:00 29° 353° (N) 1,762 4.8 -18.4°
Enters shadow 18:48:41 18° 39° (NE) 2,316 5.1 -19.0°
